This is the latest recevied weather packets stored in our database for station/object K8MUD. If no packets are shown the sender has not sent any weather packets the latest 10 day(s).
| Time | Temp. | Humidity | Pressure | Rain* | Wind** | Luminosity | Snow |
|---|---|---|---|---|---|---|---|
| 1778102844 | 10.56° C | 64% | 1011.9 hPa | 0 mm | - | - | - |
| 1778102544 | 10.56° C | 66% | 1011.9 hPa | 0 mm | - | - | - |
| 1778102243 | 10.56° C | 64% | 1011.8 hPa | 0 mm | - | - | - |
| 1778101944 | 10.56° C | 61% | 1011.9 hPa | 0 mm | - | - | - |
| 1778101643 | 10.56° C | 63% | 1011.9 hPa | 0 mm | - | - | - |
| 1778101343 | 10.56° C | 62% | 1011.9 hPa | 0 mm | - | - | - |
| 1778101043 | 10.56° C | 62% | 1011.9 hPa | 0 mm | - | - | - |
| 1778100743 | 10.56° C | 62% | 1011.9 hPa | 0 mm | - | - | - |
| 1778100443 | 11.11° C | 60% | 1011.8 hPa | 0 mm | - | - | - |
| 1778100143 | 11.11° C | 63% | 1011.8 hPa | 0 mm | - | - | - |
| 1778099843 | 11.11° C | 63% | 1011.8 hPa | 0 mm | - | - | - |
| 1778099543 | 11.11° C | 62% | 1011.8 hPa | 0 mm | - | - | - |
| 1778099243 | 11.11° C | 61% | 1011.9 hPa | 0 mm | - | - | - |
| 1778098943 | 11.67° C | 60% | 1011.9 hPa | 0 mm | - | - | - |
| 1778098643 | 11.67° C | 61% | 1012 hPa | 0 mm | - | - | - |
| 1778098343 | 12.22° C | 59% | 1012 hPa | 0 mm | - | - | - |
| 1778098042 | 12.78° C | 55% | 1012 hPa | 0 mm | - | - | - |
| 1778097742 | 12.78° C | 47% | 1011.9 hPa | 0 mm | - | - | - |
| 1778097442 | 12.78° C | 47% | 1011.8 hPa | 0 mm | - | - | - |
| 1778097142 | 12.78° C | 49% | 1011.9 hPa | 0 mm | - | - | - |
| 1778096842 | 12.78° C | 49% | 1011.9 hPa | 0 mm | - | - | - |
| 1778096542 | 12.78° C | 51% | 1011.9 hPa | 0 mm | - | - | - |
| 1778096242 | 12.22° C | 50% | 1011.9 hPa | 0 mm | - | - | - |
| 1778095942 | 12.22° C | 47% | 1011.9 hPa | 0 mm | - | - | - |
| 1778095642 | 12.78° C | 48% | 1011.8 hPa | 0 mm | - | - | - |
* Rain latest hour (hover to see other rain measurements)
** Current wind speed in m/s (hover to see current wind gust speed)